���t,����,�O�C���x,�����t���O,�O�C���Ύ��x,�����t���O,���ԋ�C���x,�����t���O,���ԑ��Ύ��x,�����t���O,�g�C���^���N����,�����t���O,���֋�C���x,�����t���O,��󒲎����x,�����t���O
2004/11/1,0:00,16.6,0,73.0,0,21.5,0,64.5,0,21.2,0,21.4,0,19.9,0
2004/11/1,0:15,16.8,0,73.0,0,21.5,0,64.5,0,21.2,0,21.4,0,19.9,0
2004/11/1,0:30,16.1,0,78.0,0,21.5,0,64.7,0,21.2,0,21.4,0,19.8,0
2004/11/1,0:45,16.2,0,79.0,0,21.5,0,64.7,0,21.3,0,21.3,0,19.8,0
2004/11/1,1:00,16.6,0,81.0,0,21.5,0,64.7,0,21.4,0,21.3,0,19.8,0
2004/11/1,1:15,16.6,0,84.0,0,21.5,0,64.7,0,21.4,0,21.3,0,19.8,0
2004/11/1,1:30,16.7,0,87.0,0,21.4,0,64.8,0,21.5,0,21.2,0,19.8,0
2004/11/1,1:45,16.6,0,88.0,0,21.4,0,64.9,0,21.6,0,21.2,0,19.7,0
2004/11/1,2:00,16.8,0,88.0,0,21.4,0,64.9,0,21.6,0,21.2,0,19.7,0
2004/11/1,2:15,16.7,0,89.0,0,21.4,0,65.1,0,21.6,0,21.2,0,19.7,0
2004/11/1,2:30,16.5,0,91.0,0,21.4,0,65.1,0,19.8,0,21.1,0,19.7,0
2004/11/1,2:45,16.5,0,92.0,0,21.4,0,65.2,0,19.8,0,21.1,0,19.7,0
2004/11/1,3:00,16.7,0,91.0,0,21.3,0,65.3,0,19.9,0,21.1,0,19.7,0
2004/11/1,3:15,16.7,0,91.0,0,21.3,0,65.4,0,19.9,0,21.1,0,19.7,0
2004/11/1,3:30,16.7,0,89.0,0,21.2,0,65.6,0,20.0,0,21.1,0,19.6,0
2004/11/1,3:45,16.7,0,89.0,0,21.2,0,65.8,0,20.1,0,21.1,0,19.6,0
2004/11/1,4:00,16.6,0,87.0,0,21.1,0,66.0,0,20.2,0,21.0,0,19.6,0
2004/11/1,4:15,16.7,0,83.0,0,21.1,0,66.1,0,20.3,0,21.0,0,19.6,0
2004/11/1,4:30,16.8,0,82.0,0,21.1,0,66.2,0,20.3,0,21.0,0,19.6,0
2004/11/1,4:45,16.8,0,81.0,0,21.0,0,66.3,0,20.4,0,21.0,0,19.6,0
2004/11/1,5:00,16.8,0,79.0,0,21.0,0,66.5,0,20.5,0,21.0,0,19.6,0
2004/11/1,5:15,17.0,0,77.0,0,20.9,0,66.6,0,20.6,0,20.9,0,19.6,0
2004/11/1,5:30,16.9,0,74.0,0,20.9,0,66.7,0,20.6,0,20.9,0,19.6,0
2004/11/1,5:45,16.9,0,74.0,0,20.9,0,66.8,0,20.7,0,20.9,0,19.5,0
2004/11/1,6:00,16.9,0,74.0,0,20.8,0,66.8,0,20.7,0,20.9,0,19.5,0
2004/11/1,6:15,16.8,0,74.0,0,20.8,0,66.8,0,20.8,0,20.8,0,19.5,0
2004/11/1,6:30,16.8,0,75.0,0,20.8,0,66.8,0,20.8,0,20.8,0,19.5,0
2004/11/1,6:45,16.9,0,77.0,0,20.7,0,66.8,0,20.9,0,20.8,0,19.5,0
2004/11/1,7:00,16.9,0,78.0,0,20.7,0,66.8,0,21.0,0,20.8,0,19.5,0
2004/11/1,7:15,16.9,0,80.0,0,20.6,0,66.7,0,21.1,0,20.7,0,19.4,0
2004/11/1,7:30,16.9,0,81.0,0,20.6,0,67.0,0,19.8,0,20.7,0,19.4,0
2004/11/1,7:45,17.1,0,81.0,0,20.6,0,66.9,0,19.9,0,20.7,0,19.4,0
2004/11/1,8:00,17.0,0,81.0,0,20.6,0,67.7,0,19.9,0,20.7,0,19.4,0
2004/11/1,8:15,17.3,0,80.0,0,20.6,0,68.0,0,19.5,0,20.7,0,19.4,0
2004/11/1,8:30,18.3,0,74.0,0,20.6,0,67.9,0,19.5,0,20.7,0,19.5,0
2004/11/1,8:45,18.9,0,70.0,0,20.6,0,68.0,0,19.6,0,20.7,0,19.5,0
2004/11/1,9:00,18.9,0,72.0,0,20.7,0,68.6,0,19.7,0,20.7,0,19.6,0
2004/11/1,9:15,19.8,0,68.0,0,20.7,0,68.8,0,19.8,0,20.7,0,19.7,0
2004/11/1,9:30,19.5,0,70.0,0,20.8,0,69.1,0,19.2,0,20.7,0,19.8,0
2004/11/1,9:45,19.3,0,74.0,0,20.9,0,69.0,0,19.3,0,20.7,0,19.9,0
2004/11/1,10:00,21.0,0,64.0,0,20.9,0,70.0,0,19.4,0,20.8,0,19.9,0
2004/11/1,10:15,20.6,0,66.0,0,20.9,0,69.4,0,19.4,0,20.8,0,20.0,0
2004/11/1,10:30,20.7,0,68.0,0,21.1,0,69.3,0,19.5,0,20.8,0,20.1,0
2004/11/1,10:45,20.2,0,70.0,0,21.2,0,69.1,0,19.6,0,20.8,0,20.3,0
2004/11/1,11:00,20.0,0,68.0,0,21.3,0,68.8,0,19.7,0,20.8,0,20.3,0
2004/11/1,11:15,19.9,0,72.0,0,21.3,0,68.8,0,19.7,0,20.9,0,20.4,0
2004/11/1,11:30,19.9,0,74.0,0,21.3,0,68.6,0,19.8,0,20.9,0,20.5,0
2004/11/1,11:45,19.5,0,73.0,0,21.3,0,68.5,0,19.9,0,20.9,0,20.5,0
2004/11/1,12:00,20.1,0,71.0,0,21.4,0,68.4,0,19.9,0,20.9,0,20.6,0
2004/11/1,12:15,22.1,0,59.0,0,21.5,0,68.3,0,20.0,0,20.9,0,20.7,0
2004/11/1,12:30,21.4,0,62.0,0,21.5,0,68.1,0,20.1,0,20.9,0,20.8,0
2004/11/1,12:45,21.0,0,66.0,0,21.8,0,67.4,0,20.2,0,20.9,0,20.9,0
2004/11/1,13:00,20.7,0,65.0,0,21.9,0,67.1,0,20.3,0,21.0,0,21.1,0
2004/11/1,13:15,21.2,0,62.0,0,21.9,0,67.2,0,20.4,0,21.0,0,21.1,0
2004/11/1,13:30,20.7,0,64.0,0,21.9,0,67.3,0,20.4,0,21.1,0,21.2,0
2004/11/1,13:45,20.5,0,65.0,0,22.1,0,66.8,0,20.5,0,21.1,0,21.3,0
2004/11/1,14:00,20.7,0,63.0,0,22.1,0,66.7,0,20.6,0,21.1,0,21.4,0
2004/11/1,14:15,21.1,0,62.0,0,22.1,0,66.7,0,20.7,0,21.2,0,21.4,0
2004/11/1,14:30,21.0,0,59.0,0,22.2,0,66.5,0,20.7,0,21.2,0,21.5,0
2004/11/1,14:45,21.3,0,57.0,0,22.4,0,65.8,0,20.8,0,21.2,0,21.7,0
2004/11/1,15:00,20.9,0,57.0,0,22.4,0,65.7,0,20.9,0,21.2,0,21.7,0
2004/11/1,15:15,21.1,0,57.0,0,22.5,0,65.3,0,20.9,0,21.3,0,21.8,0
2004/11/1,15:30,20.9,0,56.0,0,22.5,0,65.4,0,21.0,0,21.3,0,21.9,0
2004/11/1,15:45,21.1,0,56.0,0,22.5,0,65.1,0,21.1,0,21.4,0,21.9,0
2004/11/1,16:00,21.1,0,56.0,0,22.5,0,65.1,0,21.2,0,21.4,0,22.0,0
2004/11/1,16:15,21.1,0,56.0,0,22.5,0,65.0,0,21.3,0,21.4,0,22.1,0
2004/11/1,16:30,21.0,0,56.0,0,22.5,0,65.0,0,21.3,0,21.4,0,22.1,0
2004/11/1,16:45,20.8,0,57.0,0,22.4,0,65.0,0,21.4,0,21.5,0,22.2,0
2004/11/1,17:00,20.5,0,57.0,0,22.4,0,64.9,0,21.5,0,21.5,0,22.3,0
2004/11/1,17:15,20.1,0,60.0,0,22.4,0,64.8,0,21.5,0,21.5,0,22.3,0
2004/11/1,17:30,20.0,0,62.0,0,22.3,0,64.7,0,21.6,0,21.5,0,22.3,0
2004/11/1,17:45,19.8,0,62.0,0,22.3,0,64.7,0,19.9,0,21.5,0,22.3,0
2004/11/1,18:00,19.7,0,63.0,0,22.2,0,64.7,0,20.0,0,21.5,0,22.3,0
2004/11/1,18:15,19.5,0,62.0,0,22.2,0,64.7,0,20.0,0,21.5,0,22.3,0
2004/11/1,18:30,19.1,0,66.0,0,22.2,0,64.8,0,20.1,0,21.5,0,22.3,0
2004/11/1,18:45,18.7,0,68.0,0,22.2,0,64.9,0,20.2,0,21.5,0,22.2,0
2004/11/1,19:00,18.5,0,69.0,0,22.2,0,66.1,0,20.3,0,21.5,0,22.1,0
2004/11/1,19:15,18.2,0,71.0,0,22.2,0,66.8,0,20.4,0,21.7,0,22.0,0
2004/11/1,19:30,18.1,0,71.0,0,22.2,0,66.5,0,20.5,0,21.8,0,21.9,0
2004/11/1,19:45,18.2,0,69.0,0,22.1,0,66.2,0,20.5,0,21.8,0,21.7,0
2004/11/1,20:00,18.3,0,68.0,0,22.1,0,66.0,0,19.6,0,21.8,0,21.6,0
2004/11/1,20:15,17.6,0,72.0,0,22.1,0,66.5,0,19.6,0,21.7,0,21.5,0
2004/11/1,20:30,17.5,0,72.0,0,22.1,0,67.5,0,19.7,0,21.6,0,21.4,0
2004/11/1,20:45,17.4,0,73.0,0,22.1,0,67.2,0,19.8,0,21.6,0,21.3,0
2004/11/1,21:00,17.4,0,73.0,0,22.0,0,67.2,0,19.8,0,21.6,0,21.2,0
2004/11/1,21:15,17.3,0,73.0,0,22.0,0,67.3,0,19.9,0,21.6,0,21.1,0
2004/11/1,21:30,17.4,0,72.0,0,22.0,0,68.0,0,20.0,0,21.6,0,21.0,0
2004/11/1,21:45,17.3,0,73.0,0,22.0,0,67.9,0,20.0,0,21.6,0,21.0,0
2004/11/1,22:00,17.1,0,74.0,0,22.0,0,67.6,0,19.5,0,21.6,0,20.9,0
2004/11/1,22:15,17.0,0,74.0,0,22.1,0,67.9,0,19.6,0,21.6,0,20.9,0
2004/11/1,22:30,16.9,0,75.0,0,22.1,0,67.7,0,19.6,0,21.6,0,20.8,0
2004/11/1,22:45,16.9,0,75.0,0,22.1,0,67.0,0,19.7,0,21.6,0,20.8,0
2004/11/1,23:00,16.8,0,76.0,0,22.1,0,67.2,0,19.8,0,21.6,0,20.7,0
2004/11/1,23:15,16.7,0,76.0,0,22.1,0,67.0,0,19.9,0,21.7,0,20.7,0
2004/11/1,23:30,16.8,0,76.0,0,22.1,0,67.3,0,19.9,0,21.7,0,20.6,0
2004/11/1,23:45,16.7,0,77.0,0,22.1,0,67.5,0,19.8,0,21.7,0,20.6,0
2004/11/2,0:00,16.6,0,77.0,0,22.1,0,67.5,0,19.9,0,21.7,0,20.5,0
2004/11/2,0:15,16.6,0,75.0,0,22.0,0,67.4,0,19.8,0,21.7,0,20.5,0
2004/11/2,0:30,16.7,0,77.0,0,22.0,0,67.3,0,19.5,0,21.7,0,20.5,0
2004/11/2,0:45,16.4,0,78.0,0,22.0,0,67.3,0,19.5,0,21.7,0,20.4,0
2004/11/2,1:00,16.3,0,77.0,0,22.0,0,66.9,0,19.6,0,21.7,0,20.4,0
2004/11/2,1:15,16.3,0,77.0,0,21.9,0,66.7,0,19.7,0,21.7,0,20.4,0
2004/11/2,1:30,16.5,0,76.0,0,21.9,0,66.6,0,19.8,0,21.7,0,20.3,0
2004/11/2,1:45,16.5,0,76.0,0,21.8,0,66.6,0,19.8,0,21.7,0,20.3,0
2004/11/2,2:00,16.6,0,75.0,0,21.8,0,66.6,0,19.9,0,21.7,0,20.2,0
2004/11/2,2:15,16.6,0,75.0,0,21.7,0,66.5,0,20.0,0,21.6,0,20.2,0
2004/11/2,2:30,16.6,0,75.0,0,21.7,0,66.5,0,20.0,0,21.6,0,20.2,0
2004/11/2,2:45,16.7,0,73.0,0,21.6,0,66.5,0,20.2,0,21.6,0,20.1,0
2004/11/2,3:00,16.6,0,73.0,0,21.6,0,66.5,0,20.2,0,21.6,0,20.1,0
2004/11/2,3:15,16.8,0,71.0,0,21.5,0,66.5,0,20.3,0,21.5,0,20.0,0
2004/11/2,3:30,16.8,0,72.0,0,21.5,0,66.5,0,20.4,0,21.5,0,20.0,0
2004/11/2,3:45,16.6,0,73.0,0,21.4,0,66.5,0,20.5,0,21.5,0,20.0,0
2004/11/2,4:00,16.5,0,73.0,0,21.4,0,66.5,0,20.6,0,21.5,0,19.9,0
2004/11/2,4:15,16.4,0,74.0,0,21.3,0,66.4,0,20.6,0,21.4,0,19.9,0
2004/11/2,4:30,16.2,0,75.0,0,21.3,0,66.3,0,20.7,0,21.4,0,19.8,0
2004/11/2,4:45,16.2,0,74.0,0,21.2,0,66.4,0,20.8,0,21.4,0,19.8,0
2004/11/2,5:00,16.1,0,74.0,0,21.1,0,66.4,0,20.8,0,21.3,0,19.7,0
2004/11/2,5:15,16.2,0,73.0,0,21.1,0,66.3,0,20.9,0,21.3,0,19.7,0
2004/11/2,5:30,16.0,0,75.0,0,21.0,0,66.3,0,21.0,0,21.3,0,19.6,0
2004/11/2,5:45,16.3,0,75.0,0,21.0,0,66.3,0,21.1,0,21.2,0,19.6,0
2004/11/2,6:00,17.0,0,74.0,0,20.9,0,66.3,0,21.1,0,21.2,0,19.5,0
2004/11/2,6:15,17.3,0,73.0,0,20.9,0,66.3,0,21.2,0,21.2,0,19.5,0
2004/11/2,6:30,17.4,0,73.0,0,20.8,0,66.2,0,21.2,0,21.1,0,19.5,0
2004/11/2,6:45,17.7,0,74.0,0,20.8,0,66.3,0,21.3,0,21.1,0,19.5,0
2004/11/2,7:00,17.6,0,75.0,0,20.7,0,66.5,0,21.4,0,21.1,0,19.5,0
2004/11/2,7:15,17.6,0,76.0,0,20.7,0,66.5,0,21.4,0,21.0,0,19.5,0
2004/11/2,7:30,17.5,0,75.0,0,20.7,0,66.6,0,21.5,0,21.0,0,19.6,0
2004/11/2,7:45,17.5,0,71.0,0,20.6,0,66.6,0,21.5,0,21.0,0,19.6,0
2004/11/2,8:00,17.9,0,67.0,0,20.6,0,66.7,0,21.6,0,21.0,0,19.6,0
2004/11/2,8:15,18.6,0,64.0,0,20.6,0,66.8,0,21.6,0,20.9,0,19.6,0
2004/11/2,8:30,18.3,0,61.0,0,20.6,0,66.9,0,21.7,0,20.9,0,19.6,0
2004/11/2,8:45,19.6,0,56.0,0,20.6,0,66.9,0,21.7,0,20.9,0,19.7,0
2004/11/2,9:00,20.5,0,54.0,0,20.6,0,66.8,0,21.8,0,20.9,0,19.8,0
2004/11/2,9:15,19.7,0,53.0,0,20.7,0,66.7,0,19.6,0,20.9,0,19.8,0
2004/11/2,9:30,20.7,0,53.0,0,20.8,0,66.7,0,19.6,0,20.9,0,19.9,0
2004/11/2,9:45,19.9,0,54.0,0,20.9,0,67.0,0,19.7,0,21.0,0,20.0,0
2004/11/2,10:00,19.5,0,54.0,0,21.0,0,66.5,0,19.7,0,21.0,0,20.1,0
2004/11/2,10:15,20.1,0,49.0,0,21.0,0,66.2,0,19.8,0,21.0,0,20.2,0
2004/11/2,10:30,21.0,0,47.0,0,21.0,0,66.1,0,19.8,0,21.0,0,20.3,0
2004/11/2,10:45,21.5,0,45.0,0,21.1,0,65.7,0,19.9,0,21.0,0,20.4,0
2004/11/2,11:00,22.3,0,43.0,0,21.1,0,65.3,0,20.0,0,21.0,0,20.5,0
2004/11/2,11:15,22.4,0,42.0,0,21.2,0,64.9,0,20.1,0,21.0,0,20.6,0
2004/11/2,11:30,22.4,0,43.0,0,21.3,0,64.4,0,20.2,0,21.0,0,20.8,0
2004/11/2,11:45,22.7,0,41.0,0,21.5,0,64.0,0,20.3,0,21.0,0,20.9,0
2004/11/2,12:00,23.1,0,37.0,0,21.6,0,63.5,0,20.4,0,21.0,0,21.0,0
2004/11/2,12:15,23.2,0,36.0,0,21.7,0,63.1,0,20.4,0,21.1,0,21.2,0
2004/11/2,12:30,22.3,0,42.0,0,21.8,0,62.6,0,20.5,0,21.1,0,21.3,0
2004/11/2,12:45,21.1,0,50.0,0,22.0,0,62.2,0,20.6,0,21.1,0,21.5,0
2004/11/2,13:00,20.8,0,51.0,0,22.0,0,61.9,0,20.6,0,21.1,0,21.6,0
2004/11/2,13:15,21.0,0,48.0,0,22.0,0,61.7,0,20.7,0,21.1,0,21.6,0
2004/11/2,13:30,20.9,0,45.0,0,22.0,0,61.5,0,20.8,0,21.1,0,21.7,0
2004/11/2,13:45,21.4,0,46.0,0,22.0,0,61.4,0,20.9,0,21.1,0,21.8,0
2004/11/2,14:00,21.3,0,45.0,0,22.0,0,61.1,0,20.9,0,21.2,0,21.8,0
2004/11/2,14:15,21.2,0,48.0,0,22.1,0,60.7,0,21.0,0,21.2,0,21.9,0
2004/11/2,14:30,20.7,0,48.0,0,22.2,0,60.6,0,21.1,0,21.2,0,22.0,0
2004/11/2,14:45,20.4,0,49.0,0,22.2,0,60.6,0,21.1,0,21.2,0,22.0,0
2004/11/2,15:00,20.3,0,48.0,0,22.2,0,60.2,0,21.2,0,21.2,0,22.0,0
2004/11/2,15:15,20.0,0,48.0,0,22.2,0,60.0,0,21.3,0,21.2,0,22.0,0
2004/11/2,15:30,19.9,0,48.0,0,22.2,0,59.9,0,21.3,0,21.2,0,22.1,0
2004/11/2,15:45,19.6,0,49.0,0,22.2,0,59.6,0,21.4,0,21.2,0,22.1,0
2004/11/2,16:00,19.4,0,48.0,0,22.2,0,59.5,0,21.5,0,21.3,0,22.0,0
2004/11/2,16:15,19.4,0,46.0,0,22.1,0,59.6,0,21.5,0,21.3,0,22.0,0
2004/11/2,16:30,19.3,0,49.0,0,22.1,0,59.6,0,21.6,0,21.3,0,22.0,0
2004/11/2,16:45,19.1,0,50.0,0,22.0,0,59.5,0,21.7,0,21.3,0,22.0,0
2004/11/2,17:00,18.8,0,50.0,0,22.0,0,58.9,0,21.7,0,21.3,0,22.0,0
2004/11/2,17:15,18.4,0,51.0,0,21.9,0,58.7,0,21.7,0,21.3,0,22.0,0
2004/11/2,17:30,18.3,0,52.0,0,21.8,0,58.8,0,21.8,0,21.3,0,21.9,0
2004/11/2,17:45,18.2,0,53.0,0,21.8,0,58.7,0,21.9,0,21.2,0,21.8,0
2004/11/2,18:00,18.1,0,54.0,0,21.7,0,58.7,0,21.9,0,21.2,0,21.6,0
2004/11/2,18:15,18.0,0,56.0,0,21.6,0,58.7,0,21.9,0,21.2,0,21.4,0
2004/11/2,18:30,17.9,0,58.0,0,21.5,0,58.7,0,22.0,0,21.2,0,21.2,0
2004/11/2,18:45,17.9,0,57.0,0,21.5,0,58.7,0,22.1,0,21.2,0,21.1,0
2004/11/2,19:00,17.7,0,57.0,0,21.4,0,58.8,0,22.1,0,21.1,0,20.9,0
2004/11/2,19:15,17.7,0,56.0,0,21.4,0,59.0,0,22.1,0,21.1,0,20.8,0
2004/11/2,19:30,17.5,0,57.0,0,21.3,0,59.0,0,22.2,0,21.1,0,20.7,0
2004/11/2,19:45,17.5,0,57.0,0,21.3,0,59.0,0,22.2,0,21.1,0,20.6,0
2004/11/2,20:00,17.4,0,57.0,0,21.2,0,59.1,0,22.2,0,21.1,0,20.5,0
2004/11/2,20:15,17.4,0,57.0,0,21.1,0,59.2,0,22.3,0,21.0,0,20.4,0
2004/11/2,20:30,17.4,0,57.0,0,21.1,0,59.2,0,22.3,0,21.0,0,20.3,0
2004/11/2,20:45,17.2,0,58.0,0,21.1,0,59.3,0,22.3,0,21.0,0,20.2,0
2004/11/2,21:00,17.1,0,58.0,0,21.0,0,59.5,0,19.9,0,21.0,0,20.2,0
2004/11/2,21:15,17.0,0,58.0,0,21.1,0,59.8,0,20.0,0,21.0,0,20.1,0
2004/11/2,21:30,17.0,0,57.0,0,21.0,0,59.6,0,20.1,0,21.0,0,20.1,0
2004/11/2,21:45,16.9,0,57.0,0,21.1,0,59.8,0,20.1,0,21.0,0,20.0,0
2004/11/2,22:00,16.8,0,54.0,0,21.1,0,59.8,0,20.2,0,21.0,0,20.0,0
2004/11/2,22:15,16.6,0,54.0,0,21.1,0,59.6,0,20.3,0,21.0,0,19.9,0
2004/11/2,22:30,16.6,0,54.0,0,21.0,0,59.6,0,20.4,0,21.0,0,19.9,0
2004/11/2,22:45,16.5,0,55.0,0,21.0,0,59.3,0,20.4,0,20.9,0,19.8,0
2004/11/2,23:00,16.4,0,56.0,0,21.0,0,58.8,0,20.5,0,20.9,0,19.8,0
2004/11/2,23:15,16.3,0,58.0,0,20.9,0,58.6,0,19.3,0,20.9,0,19.7,0
2004/11/2,23:30,16.1,0,55.0,0,20.9,0,58.8,0,19.4,0,20.9,0,19.6,0
2004/11/2,23:45,16.0,0,51.0,0,20.9,0,58.8,0,19.5,0,20.9,0,19.6,0
2004/11/3,0:00,15.8,0,50.0,0,20.9,0,58.9,0,19.5,0,20.8,0,19.6,0
2004/11/3,0:15,15.8,0,49.0,0,20.9,0,58.8,0,19.6,0,20.8,0,19.5,0
2004/11/3,0:30,15.8,0,50.0,0,20.9,0,58.7,0,19.7,0,20.8,0,19.5,0
2004/11/3,0:45,15.8,0,49.0,0,20.8,0,58.4,0,19.7,0,20.7,0,19.4,0
2004/11/3,1:00,15.8,0,49.0,0,20.8,0,58.3,0,19.8,0,20.7,0,19.3,0
2004/11/3,1:15,15.7,0,50.0,0,20.8,0,58.1,0,19.9,0,20.6,0,19.3,0
2004/11/3,1:30,15.7,0,52.0,0,20.8,0,57.7,0,19.1,0,20.6,0,19.2,0
2004/11/3,1:45,15.7,0,53.0,0,20.7,0,56.4,0,19.2,0,20.6,0,19.2,0
2004/11/3,2:00,15.6,0,52.0,0,20.7,0,56.0,0,19.3,0,20.5,0,19.1,0
2004/11/3,2:15,15.5,0,51.0,0,20.6,0,55.7,0,19.3,0,20.5,0,19.1,0
2004/11/3,2:30,15.4,0,50.0,0,20.5,0,55.5,0,19.4,0,20.4,0,19.0,0
2004/11/3,2:45,15.5,0,49.0,0,20.5,0,55.5,0,19.5,0,20.4,0,19.0,0
2004/11/3,3:00,15.5,0,48.0,0,20.4,0,55.2,0,19.5,0,20.3,0,18.9,0
2004/11/3,3:15,15.5,0,47.0,0,20.3,0,55.2,0,19.6,0,20.3,0,18.9,0
2004/11/3,3:30,15.5,0,50.0,0,20.3,0,54.7,0,19.6,0,20.2,0,18.8,0
2004/11/3,3:45,15.4,0,52.0,0,20.2,0,54.8,0,19.7,0,20.2,0,18.8,0
2004/11/3,4:00,15.4,0,52.0,0,20.1,0,54.8,0,19.8,0,20.1,0,18.7,0
2004/11/3,4:15,15.4,0,51.0,0,20.1,0,54.6,0,19.8,0,20.1,0,18.7,0
2004/11/3,4:30,15.4,0,51.0,0,20.0,0,54.7,0,19.9,0,20.0,0,18.7,0
2004/11/3,4:45,15.5,0,50.0,0,20.0,0,54.9,0,19.9,0,20.0,0,18.6,0
2004/11/3,5:00,15.4,0,51.0,0,19.9,0,55.1,0,20.0,0,19.9,0,18.6,0
2004/11/3,5:15,15.5,0,51.0,0,19.8,0,55.3,0,20.1,0,19.9,0,18.5,0
2004/11/3,5:30,15.7,0,52.0,0,19.8,0,55.2,0,20.1,0,19.9,0,18.5,0
2004/11/3,5:45,15.8,0,51.0,0,19.8,0,55.4,0,20.2,0,19.8,0,18.4,0
2004/11/3,6:00,15.9,0,52.0,0,19.7,0,55.3,0,20.2,0,19.8,0,18.4,0
2004/11/3,6:15,15.8,0,53.0,0,19.7,0,55.4,0,20.3,0,19.8,0,18.4,0
2004/11/3,6:30,15.8,0,52.0,0,19.6,0,55.5,0,20.4,0,19.7,0,18.4,0
2004/11/3,6:45,15.9,0,50.0,0,19.6,0,55.6,0,20.4,0,19.7,0,18.4,0
2004/11/3,7:00,16.0,0,50.0,0,19.6,0,55.5,0,20.5,0,19.7,0,18.4,0
2004/11/3,7:15,16.0,0,51.0,0,19.5,0,55.7,0,20.5,0,19.6,0,18.3,0
2004/11/3,7:30,15.9,0,54.0,0,19.5,0,55.8,0,19.4,0,19.6,0,18.3,0
2004/11/3,7:45,16.2,0,50.0,0,19.5,0,56.0,0,19.7,0,19.6,0,18.3,0
2004/11/3,8:00,17.8,0,44.0,0,19.4,0,56.2,0,19.7,0,19.6,0,18.4,0
2004/11/3,8:15,17.2,0,43.0,0,19.4,0,56.8,0,19.7,0,19.6,0,18.4,0
2004/11/3,8:30,17.0,0,44.0,0,19.5,0,57.4,0,19.7,0,19.6,0,18.4,0
2004/11/3,8:45,17.0,0,48.0,0,19.6,0,58.4,0,19.7,0,19.6,0,18.5,0
2004/11/3,9:00,16.9,0,49.0,0,19.5,0,57.9,0,19.8,0,19.6,0,18.6,0
2004/11/3,9:15,16.9,0,51.0,0,19.5,0,57.5,0,19.9,0,19.6,0,18.7,0
2004/11/3,9:30,16.8,0,53.0,0,19.5,0,57.4,0,19.9,0,19.6,0,18.7,0
2004/11/3,9:45,16.9,0,52.0,0,19.5,0,57.3,0,20.0,0,19.6,0,18.7,0
2004/11/3,10:00,17.7,0,51.0,0,19.5,0,57.3,0,20.0,0,19.6,0,18.7,0
2004/11/3,10:15,17.9,0,48.0,0,19.5,0,57.3,0,20.1,0,19.5,0,18.7,0
2004/11/3,10:30,18.0,0,47.0,0,19.5,0,57.2,0,20.2,0,19.5,0,18.7,0
2004/11/3,10:45,18.3,0,46.0,0,19.5,0,57.3,0,20.3,0,19.6,0,18.8,0
2004/11/3,11:00,18.3,0,46.0,0,19.6,0,57.4,0,20.3,0,19.6,0,18.9,0
2004/11/3,11:15,18.0,0,48.0,0,19.6,0,57.3,0,20.4,0,19.5,0,19.0,0
2004/11/3,11:30,17.8,0,53.0,0,19.7,0,57.3,0,20.4,0,19.6,0,19.0,0
2004/11/3,11:45,17.8,0,52.0,0,19.7,0,57.3,0,20.5,0,19.6,0,19.1,0
2004/11/3,12:00,17.6,0,54.0,0,19.7,0,57.4,0,20.6,0,19.5,0,19.1,0
2004/11/3,12:15,17.7,0,54.0,0,19.7,0,57.5,0,20.6,0,19.5,0,19.1,0
2004/11/3,12:30,17.6,0,54.0,0,19.7,0,57.6,0,20.7,0,19.5,0,19.2,0
2004/11/3,12:45,17.7,0,53.0,0,19.7,0,57.6,0,20.7,0,19.6,0,19.2,0
2004/11/3,13:00,18.3,0,50.0,0,19.8,0,57.7,0,20.8,0,19.5,0,19.2,0
2004/11/3,13:15,18.2,0,50.0,0,19.8,0,57.9,0,20.8,0,19.5,0,19.3,0
2004/11/3,13:30,18.2,0,52.0,0,19.8,0,57.9,0,20.9,0,19.6,0,19.3,0
2004/11/3,13:45,17.7,0,54.0,0,19.9,0,57.9,0,20.9,0,19.6,0,19.4,0
2004/11/3,14:00,17.8,0,54.0,0,19.9,0,57.8,0,21.0,0,19.6,0,19.4,0
2004/11/3,14:15,17.7,0,55.0,0,20.0,0,57.8,0,21.0,0,19.6,0,19.4,0
2004/11/3,14:30,17.5,0,55.0,0,20.0,0,57.8,0,21.1,0,19.6,0,19.4,0
2004/11/3,14:45,17.5,0,55.0,0,20.0,0,57.9,0,21.1,0,19.6,0,19.5,0
2004/11/3,15:00,17.4,0,55.0,0,20.0,0,57.9,0,21.2,0,19.6,0,19.5,0
2004/11/3,15:15,17.3,0,54.0,0,20.0,0,58.0,0,21.2,0,19.6,0,19.5,0
2004/11/3,15:30,17.3,0,55.0,0,20.0,0,58.1,0,21.3,0,19.6,0,19.5,0
2004/11/3,15:45,17.1,0,55.0,0,20.0,0,58.1,0,21.3,0,19.6,0,19.5,0
2004/11/3,16:00,17.0,0,57.0,0,19.9,0,58.1,0,21.3,0,19.6,0,19.5,0
2004/11/3,16:15,16.9,0,55.0,0,19.9,0,58.2,0,21.4,0,19.6,0,19.5,0
2004/11/3,16:30,16.8,0,55.0,0,19.9,0,58.2,0,21.4,0,19.6,0,19.5,0
2004/11/3,16:45,16.6,0,54.0,0,19.9,0,58.3,0,21.5,0,19.6,0,19.5,0
2004/11/3,17:00,16.5,0,53.0,0,19.9,0,58.3,0,21.5,0,19.6,0,19.4,0
2004/11/3,17:15,16.3,0,54.0,0,19.8,0,58.3,0,21.5,0,19.6,0,19.4,0
2004/11/3,17:30,16.2,0,54.0,0,19.8,0,58.3,0,21.6,0,19.6,0,19.3,0
2004/11/3,17:45,16.2,0,55.0,0,19.8,0,58.4,0,21.6,0,19.6,0,19.2,0
2004/11/3,18:00,16.0,0,55.0,0,19.7,0,58.3,0,21.6,0,19.6,0,19.1,0
2004/11/3,18:15,15.8,0,55.0,0,19.7,0,58.1,0,21.7,0,19.6,0,19.0,0
2004/11/3,18:30,15.7,0,57.0,0,19.7,0,58.3,0,21.7,0,19.5,0,18.9,0
2004/11/3,18:45,15.6,0,58.0,0,19.7,0,58.7,0,21.7,0,19.5,0,18.8,0
2004/11/3,19:00,15.3,0,59.0,0,19.7,0,59.2,0,21.8,0,19.5,0,18.7,0
2004/11/3,19:15,15.3,0,58.0,0,19.8,0,60.1,0,21.8,0,19.5,0,18.6,0
2004/11/3,19:30,15.1,0,58.0,0,19.9,0,60.4,0,21.8,0,19.5,0,18.5,0
2004/11/3,19:45,15.1,0,58.0,0,19.8,0,59.6,0,21.8,0,19.5,0,18.5,0
2004/11/3,20:00,14.8,0,58.0,0,19.8,0,59.1,0,21.9,0,19.5,0,18.4,0
2004/11/3,20:15,14.8,0,58.0,0,19.8,0,58.7,0,21.9,0,19.5,0,18.3,0
2004/11/3,20:30,14.9,0,57.0,0,19.8,0,58.4,0,21.9,0,19.4,0,18.3,0
2004/11/3,20:45,14.9,0,59.0,0,19.7,0,58.0,0,21.9,0,19.4,0,18.2,0
2004/11/3,21:00,14.8,0,61.0,0,19.7,0,57.6,0,21.9,0,19.4,0,18.2,0
2004/11/3,21:15,14.8,0,60.0,0,19.7,0,57.7,0,22.0,0,19.4,0,18.1,0
2004/11/3,21:30,15.0,0,59.0,0,19.6,0,58.3,0,22.0,0,19.4,0,18.1,0
2004/11/3,21:45,14.5,0,63.0,0,19.6,0,57.5,0,22.0,0,19.4,0,18.0,0
2004/11/3,22:00,14.2,0,65.0,0,19.6,0,57.7,0,22.1,0,19.4,0,18.0,0
2004/11/3,22:15,14.1,0,65.0,0,19.6,0,57.9,0,22.0,0,19.3,0,17.9,0
2004/11/3,22:30,14.2,0,64.0,0,19.6,0,57.8,0,22.1,0,19.3,0,17.9,0
2004/11/3,22:45,14.2,0,65.0,0,19.6,0,58.0,0,22.1,0,19.3,0,17.8,0
2004/11/3,23:00,13.7,0,68.0,0,19.6,0,58.0,0,22.1,0,19.3,0,17.8,0
2004/11/3,23:15,13.5,0,69.0,0,19.5,0,58.6,0,19.7,0,19.3,0,17.7,0
2004/11/3,23:30,13.6,0,68.0,0,19.5,0,58.7,0,19.7,0,19.3,0,17.7,0
2004/11/3,23:45,13.4,0,68.0,0,19.5,0,58.8,0,19.8,0,19.3,0,17.6,0
2004/11/4,0:00,13.5,0,67.0,0,19.4,0,58.8,0,19.8,0,19.2,0,17.6,0
2004/11/4,0:15,13.3,0,69.0,0,19.4,0,58.9,0,19.9,0,19.2,0,17.5,0
2004/11/4,0:30,12.9,0,71.0,0,19.4,0,59.1,0,19.5,0,19.2,0,17.5,0
2004/11/4,0:45,12.8,0,72.0,0,19.3,0,59.0,0,19.5,0,19.2,0,17.5,0
2004/11/4,1:00,12.4,0,73.0,0,19.3,0,59.0,0,19.5,0,19.2,0,17.4,0
2004/11/4,1:15,12.2,0,74.0,0,19.2,0,59.0,0,19.6,0,19.2,0,17.4,0
2004/11/4,1:30,12.4,0,74.0,0,19.2,0,59.1,0,19.6,0,19.1,0,17.3,0
2004/11/4,1:45,12.1,0,75.0,0,19.1,0,59.2,0,19.7,0,19.1,0,17.2,0
2004/11/4,2:00,11.9,0,76.0,0,19.0,0,59.3,0,19.7,0,19.1,0,17.1,0
2004/11/4,2:15,11.9,0,77.0,0,18.9,0,59.4,0,19.8,0,19.1,0,17.1,0
2004/11/4,2:30,12.0,0,76.0,0,18.9,0,59.5,0,19.8,0,19.0,0,17.0,0
2004/11/4,2:45,12.0,0,76.0,0,18.8,0,59.6,0,19.8,0,19.0,0,17.0,0
2004/11/4,3:00,11.9,0,77.0,0,18.7,0,59.7,0,19.9,0,19.0,0,16.9,0
2004/11/4,3:15,11.7,0,78.0,0,18.7,0,59.9,0,20.0,0,18.9,0,16.8,0
2004/11/4,3:30,11.5,0,78.0,0,18.6,0,59.8,0,20.0,0,18.9,0,16.8,0
2004/11/4,3:45,11.4,0,78.0,0,18.5,0,59.9,0,20.0,0,18.9,0,16.7,0
2004/11/4,4:00,11.4,0,79.0,0,18.5,0,60.0,0,20.1,0,18.8,0,16.6,0
2004/11/4,4:15,11.3,0,78.0,0,18.4,0,60.1,0,20.2,0,18.8,0,16.6,0
2004/11/4,4:30,11.2,0,78.0,0,18.3,0,60.1,0,20.2,0,18.7,0,16.5,0
2004/11/4,4:45,11.0,0,79.0,0,18.3,0,60.2,0,20.2,0,18.7,0,16.5,0
2004/11/4,5:00,10.9,0,81.0,0,18.2,0,60.2,0,20.3,0,18.7,0,16.4,0
2004/11/4,5:15,10.7,0,81.0,0,18.1,0,60.3,0,20.3,0,18.6,0,16.3,0
2004/11/4,5:30,10.8,0,81.0,0,18.1,0,60.4,0,18.8,0,18.6,0,16.3,0
2004/11/4,5:45,10.8,0,81.0,0,18.1,0,61.0,0,18.9,0,18.6,0,16.2,0
2004/11/4,6:00,10.6,0,81.0,0,18.0,0,61.0,0,18.9,0,18.6,0,16.2,0
2004/11/4,6:15,10.6,0,80.0,0,18.0,0,61.0,0,19.0,0,18.5,0,16.1,0
2004/11/4,6:30,10.5,0,82.0,0,17.9,0,60.9,0,19.0,0,18.5,0,16.0,0
2004/11/4,6:45,10.6,0,82.0,0,17.9,0,60.9,0,19.1,0,18.5,0,16.0,0
2004/11/4,7:00,10.7,0,82.0,0,17.8,0,60.9,0,19.1,0,18.4,0,15.9,0
2004/11/4,7:15,11.2,0,80.0,0,17.7,0,61.0,0,19.2,0,18.4,0,15.8,0
2004/11/4,7:30,13.4,0,73.0,0,17.7,0,61.0,0,19.2,0,18.3,0,15.8,0
2004/11/4,7:45,15.1,0,63.0,0,17.6,0,61.0,0,19.3,0,18.3,0,15.8,0
2004/11/4,8:00,15.7,0,57.0,0,17.5,0,61.0,0,19.4,0,18.3,0,15.7,0
2004/11/4,8:15,16.2,0,55.0,0,17.5,0,61.1,0,19.4,0,18.2,0,15.9,0
2004/11/4,8:30,16.5,0,55.0,0,17.5,0,61.2,0,19.4,0,18.2,0,16.1,0
2004/11/4,8:45,17.2,0,52.0,0,17.4,0,61.3,0,19.5,0,18.2,0,16.2,0
2004/11/4,9:00,18.3,0,50.0,0,17.4,0,61.4,0,19.5,0,18.2,0,16.4,0
2004/11/4,9:15,19.0,0,48.0,0,17.4,0,61.4,0,19.6,0,18.1,0,16.6,0
2004/11/4,9:30,19.9,0,45.0,0,17.5,0,61.4,0,19.6,0,18.1,0,16.7,0
2004/11/4,9:45,21.3,0,42.0,0,17.5,0,61.5,0,19.7,0,18.1,0,16.9,0
2004/11/4,10:00,22.3,0,37.0,0,17.6,0,61.4,0,19.7,0,18.1,0,17.1,0
2004/11/4,10:15,22.8,0,30.0,0,17.7,0,61.4,0,19.8,0,18.2,0,17.2,0
2004/11/4,10:30,23.1,0,27.0,0,17.8,0,61.3,0,19.8,0,18.2,0,17.4,0
2004/11/4,10:45,24.4,0,25.0,0,18.0,0,61.2,0,19.8,0,18.2,0,17.6,0
2004/11/4,11:00,24.2,0,24.0,0,18.1,0,61.1,0,19.9,0,18.2,0,17.9,0
2004/11/4,11:15,25.1,0,25.0,0,18.2,0,60.9,0,19.9,0,18.3,0,18.1,0
2004/11/4,11:30,25.3,0,24.0,0,18.3,0,60.7,0,20.0,0,18.3,0,18.3,0
2004/11/4,11:45,26.0,0,24.0,0,18.5,0,60.4,0,20.0,0,18.3,0,18.6,0
2004/11/4,12:00,25.8,0,24.0,0,18.6,0,60.2,0,20.1,0,18.4,0,18.8,0
2004/11/4,12:15,25.8,0,24.0,0,18.8,0,60.0,0,20.1,0,18.4,0,19.0,0
2004/11/4,12:30,26.2,0,23.0,0,18.9,0,59.7,0,20.2,0,18.5,0,19.2,0
2004/11/4,12:45,26.2,0,24.0,0,19.1,0,59.4,0,20.2,0,18.5,0,19.4,0
2004/11/4,13:00,26.2,0,24.0,0,19.2,0,59.2,0,20.3,0,18.6,0,19.6,0
2004/11/4,13:15,25.6,0,24.0,0,19.3,0,59.1,0,20.3,0,18.6,0,19.8,0
2004/11/4,13:30,25.2,0,26.0,0,19.4,0,58.6,0,20.3,0,18.7,0,20.0,0
2004/11/4,13:45,25.1,0,28.0,0,19.5,0,58.4,0,20.4,0,18.7,0,20.2,0
2004/11/4,14:00,24.8,0,30.0,0,19.6,0,58.2,0,20.4,0,18.8,0,20.4,0
2004/11/4,14:15,24.5,0,30.0,0,19.7,0,58.1,0,20.5,0,18.8,0,20.6,0
2004/11/4,14:30,24.0,0,31.0,0,19.9,0,57.8,0,20.5,0,18.9,0,20.7,0
2004/11/4,14:45,23.3,0,31.0,0,20.0,0,57.6,0,20.5,0,19.0,0,20.8,0
2004/11/4,15:00,23.1,0,33.0,0,20.1,0,57.4,0,20.6,0,19.0,0,20.9,0
2004/11/4,15:15,23.0,0,34.0,0,20.2,0,57.2,0,20.6,0,19.1,0,21.0,0
2004/11/4,15:30,22.7,0,36.0,0,20.2,0,57.1,0,20.7,0,19.1,0,21.1,0
2004/11/4,15:45,22.5,0,36.0,0,20.3,0,56.9,0,20.7,0,19.2,0,21.2,0
2004/11/4,16:00,22.3,0,37.0,0,20.4,0,56.6,0,18.7,0,19.2,0,21.2,0
2004/11/4,16:15,21.7,0,38.0,0,20.5,0,56.5,0,18.8,0,19.3,0,21.3,0
2004/11/4,16:30,21.3,0,39.0,0,20.6,0,56.9,0,18.8,0,19.4,0,21.3,0
2004/11/4,16:45,20.8,0,41.0,0,20.7,0,58.5,0,18.9,0,19.4,0,21.4,0
2004/11/4,17:00,20.2,0,44.0,0,20.7,0,60.2,0,18.9,0,19.5,0,21.4,0
2004/11/4,17:15,19.6,0,46.0,0,20.8,0,59.5,0,19.0,0,19.5,0,21.4,0
2004/11/4,17:30,19.1,0,49.0,0,20.8,0,58.0,0,19.1,0,19.6,0,21.4,0
2004/11/4,17:45,18.7,0,51.0,0,20.7,0,58.0,0,19.1,0,19.6,0,21.4,0
2004/11/4,18:00,18.3,0,53.0,0,20.6,0,57.3,0,19.2,0,19.6,0,21.3,0
2004/11/4,18:15,18.0,0,55.0,0,20.6,0,57.2,0,19.2,0,19.6,0,21.3,0
2004/11/4,18:30,17.8,0,57.0,0,20.5,0,57.2,0,19.3,0,19.6,0,21.2,0